User: anonymous   Login
Location: Ostrava
(49.8330°N, 18.2830°E)
Time: 22:16:31
(UTC+02:00)
Language:

Cosmos 1766 - Orbit

View from above orbital plane
View from above orbital plane
View from above satellite
View from above satellite

Ground track
Ground track

The orbit data is extracted from the following two-line orbital elements,

1 16881U 86055A   15183.14710182  .00000641  00000-0  39321-4 0  9993
2 16881 082.5075 003.3670 0015499 027.0680 333.1353 15.08325408573421
Epoch (UTC): 02 July 2015 03:31:49
Eccentricity: 0.0015499
inclination: 82.5075°
perigee height: 530 km
apogee height: 552 km
right ascension of ascending node: 3.3670°
argument of perigee: 27.0680°
revolutions per day: 15.08325408
mean anomaly at epoch: 333.1353°
orbit number at epoch: 57342

The dashed part of the orbit path shows where the satellite is in the earth's shadow,  

DLR